Location: Elaine Barite Prospect
(34.1431°N, 106.7922°W)
Time: 11:53:34
(UTC+00:00)

EPKM - Pass Details

Date: 13 December 2025
Orbit: 293 x 16626 km, 25.8° (Epoch: 15 January)

Event Time Altitude Azimuth Distance (km) Brightness Sun altitude
Exits shadow 12:18:50 21° 201° (SSW) 1,164 3.9 -21.2°
Maximum altitude 12:19:09 21° 192° (SSW) 1,103 3.8 -21.1°
Drops below altitude 10° 12:21:11 10° 137° (SE) 1,298 5.0 -20.7°
Sets 12:22:52 0° 116° (ESE) 1,970 6.6 -20.4°
